Regional Weather Roundup
Issued by NWS

Home | Current Version | Previous Version | Graphics & Text | Print | Product List | Glossary On
Versions: 1 2 3 4 5 6 7 8 9 10 11 12 13 14 15 16 17 18 19 20 21 22 23 24 25 26 27 28 29 30 31 32 33 34 35 36 37 38 39 40 41 42 43 44 45 46 47 48 49 50
000
ASUS43 KLMK 301510
RWRKY
KENTUCKY REGIONAL WEATHER ROUNDUP
NATIONAL WEATHER SERVICE LOUISVILLE KY
1100 AM EDT WED JUL 30 2014

NOTE "FAIR" INDICATES FEW OR NO CLOUDS BELOW 12,000 FEET
WITH NO SIGNIFICANT WEATHER AND/OR OBSTRUCTIONS TO VISIBILITY.

KYZ001>023-026-027-061>063-070>075-301600-
WESTERN AND SOUTH CENTRAL KENTUCKY

CITY           SKY/WX    TMP DP  RH WIND       PRES   REMARKS
PADUCAH        PTSUNNY   75  60  59 CALM      30.11S
HENDERSON      SUNNY     75  61  60 W7        30.10S
OWENSBORO      SUNNY     73  61  66 W3        30.12R
HOPKINSVILLE   PTSUNNY   74  57  56 NW5       30.13S
BOWLING GREEN  SUNNY     76  54  46 NW6       30.13S
GLASGOW        SUNNY     72  58  61 CALM      30.13S
$$

KYZ024-025-028>034-038-045-046-053-301600-
NORTH CENTRAL KENTUCKY

CITY           SKY/WX    TMP DP  RH WIND       PRES   REMARKS
LOUISVILLE/SDF SUNNY     77  57  50 VRB3      30.10S
LOUISVILLE/LOU SUNNY     75  56  51 VRB3      30.10F
FORT KNOX      SUNNY     74  61  64 SW6       30.11R
$$

KYZ035>037-039>044-047>052-055>060-089>105-301600-
NORTHEAST KENTUCKY

CITY           SKY/WX    TMP DP  RH WIND       PRES   REMARKS
LEXINGTON      SUNNY     72  59  63 W7        30.12S
COVINGTON      MOSUNNY   73  60  63 W8        30.09R
FRANKFORT      SUNNY     72  59  63 W6        30.11R
$$

KYZ054-064>069-076>088-106>120-301600-
SOUTHEAST KENTUCKY

CITY           SKY/WX    TMP DP  RH WIND       PRES   REMARKS
JACKSON        SUNNY     66  57  72 VRB5      30.15R
LONDON         SUNNY     68  56  65 CALM      30.15R
SOMERSET       SUNNY     68  61  77 CALM      30.14F
MIDDLESBORO    SUNNY     63  56  77 CALM      30.16S
MONTICELLO     SUNNY     73  59  61 CALM      30.15S
$$



USA.gov is the U.S. government's official web portal to all federal, state and local government web resources and services.